[[{"header":{"parameterUnit":"m.s-1","parameterCategory":1,"la1":30.2991,"la2":30.254,"lo1":-89.0895,"lo2":-89.0444,"dy":0.0017,"dx":0.0017,"nx":28,"ny":28,"refTime":"2024-06-28T09:00:00:Z","depth":0,"parameterNumber":2,"parameterNumberName":"U-component_of_WINDS"},"data":[0,0,0,0,0,0,0,0,0,0,0,0,0,0,0,0,0,0,0,0,0,0,0,0,0,0,0,0,0,0,0,0,0,0,0,0,0,0,0,0,0,0,0,0,0,0,0,0,0,0,0,0,0,0,0,0,0,0,3.1309,3.131,0,3.1337,3.1337,3.1337,3.1311,3.131,3.1309,3.1308,3.1334,3.1336,3.1338,0,0,0,0,0,0,0,0,0,0,0,0,0,3.123,3.1232,3.1309,3.131,3.131,3.1337,3.1337,3.1337,3.1312,3.131,3.1309,3.1308,3.1334,3.1336,3.1338,0,0,0,0,0,0,0,0,0,0,0,0,0,3.1262,3.1232,3.1309,3.13,3.13,3.1337,3.1337,3.1337,3.1312,3.131,3.1309,3.1307,3.1333,3.1336,3.1338,3.1384,0,0,3.1346,3.1347,0,0,0,0,0,0,0,0,3.126,3.1265,3.1301,3.1301,3.1301,3.1319,3.1319,3.1353,3.1312,3.1307,3.1308,3.1307,3.133,3.1333,3.1342,3.1386,3.1387,3.1346,3.1347,3.1349,3.1349,0,0,0,0,0,0,0,3.1258,3.1263,3.132,3.1302,3.1301,3.1293,3.1296,3.1325,3.1327,3.1308,3.1306,3.1309,3.133,3.1339,3.1342,3.1387,3.1346,3.1348,3.135,3.1351,3.1465,3.1466,0,0,0,0,0,0,3.1257,3.1262,3.1319,3.1321,3.1276,3.1296,3.1299,3.1315,3.1327,3.1327,3.1311,3.1308,3.1336,3.1339,3.1343,3.1394,3.1348,3.1351,3.1352,3.1463,3.1465,3.1467,0,0,0,0,0,0,3.1255,3.1262,3.1318,3.1291,3.1297,3.1299,3.1317,3.1316,3.1325,3.1329,3.1329,3.132,3.1335,3.1339,3.1373,3.1395,3.1352,3.1354,3.1461,3.1464,3.1466,3.1499,0,0,0,0,0,0,3.1253,3.1262,3.1281,3.1291,3.1299,3.135,3.1318,3.1318,3.133,3.1327,3.1338,3.1338,3.1334,3.137,3.1376,3.1397,3.1356,3.146,3.1463,3.1465,3.1496,3.1502,3.1507,0,0,0,0,0,3.1251,3.129,3.1282,3.1289,3.1323,3.1351,3.1355,3.135,3.1332,3.1349,3.1351,3.1338,3.1392,3.1373,3.138,3.1403,3.1458,3.1462,3.1465,3.1493,3.1501,3.1507,0,0,0,0,0,0,3.1282,3.1291,3.1283,3.1327,3.1338,3.1347,3.1369,3.1359,3.1375,3.1371,3.1363,3.1366,3.1401,3.1405,3.1385,3.1445,3.1422,3.1427,3.1441,3.1448,3.1454,3.1451,3.1358,0,0,0,0,0,3.1295,3.1318,3.1324,3.1362,3.1368,3.1368,3.138,3.1374,3.1386,3.139,3.1395,3.1405,3.1424,3.1437,3.1455,3.1497,3.1497,3.1515,3.1521,3.1526,3.1529,3.1547,3.1555,3.1478,3.1478,3.1478,0,0,3.132,3.1328,3.1343,3.1369,3.1377,3.1399,3.1372,3.1398,3.1413,3.1394,3.1425,3.1429,3.144,3.1477,3.1493,3.1482,3.155,3.153,3.1534,3.1535,3.1552,3.1559,3.1565,3.1481,3.148,3.148,0,0,3.1377,3.1387,3.1417,3.1425,3.1437,3.1436,3.1443,3.1453,3.1454,3.1485,3.147,3.1488,3.1522,3.1529,3.1537,3.1592,3.1579,3.1598,3.1627,3.1645,3.1651,3.1656,3.1672,3.1679,3.1602,3.1602,3.1602,0,3.1406,3.144,3.1434,3.1459,3.1469,3.1453,3.1482,3.149,3.1507,3.1514,3.1501,3.154,3.1546,3.1582,3.1595,3.1604,3.1609,3.1596,3.1651,3.1656,3.1661,3.1676,3.1683,3.1604,3.1604,3.1604,3.1604,0,3.1474,3.1497,3.152,3.1536,3.1549,3.1576,3.1572,3.1586,3.1578,3.1578,3.1608,3.1615,3.1631,3.164,3.1634,3.1674,3.1666,3.1653,3.1628,3.167,3.1684,3.169,3.1607,3.1606,3.1606,3.1605,0,0,3.1552,3.1562,3.157,3.1575,3.1586,3.1603,3.1628,3.1644,3.1654,3.1666,3.1685,3.1712,3.1698,3.1707,3.1701,3.1718,3.1756,3.1701,3.1701,3.1708,3.1796,3.1804,3.1812,3.1748,3.1749,3.175,3.1794,0,3.1606,3.165,3.1643,3.1684,3.1703,3.1686,3.1707,3.1715,3.1714,3.1729,3.1729,3.1746,3.1729,3.1733,3.1749,3.1748,3.1773,3.1745,3.1762,3.1763,3.1757,3.1819,3.1829,3.1871,3.18,3.1801,3.1801,0,3.1676,3.1688,3.1731,3.1734,3.1742,3.1762,3.1773,3.1789,3.1796,3.1794,3.1803,3.1793,3.1815,3.1792,3.182,3.1802,3.1808,3.1809,3.181,3.1809,3.1783,3.1817,3.1884,3.1889,3.1811,3.181,3.1809,0,3.1723,3.1752,3.1779,3.1785,3.1791,3.1804,3.1807,3.1813,3.1821,3.1832,3.1837,3.185,3.1857,3.1866,3.1859,3.1844,3.1888,3.1865,3.1884,3.1884,3.1893,3.1892,3.1959,3.1902,3.1902,3.1902,3.1902,0,3.1783,3.1809,3.18,3.1817,3.1844,3.1836,3.1863,3.1864,3.1868,3.1883,3.187,3.1884,3.1876,3.1888,3.1883,3.1905,3.191,3.1907,3.1905,3.1907,3.1906,3.1909,3.1905,3.1904,3.1903,3.1903,3.1903,0,3.184,3.1837,3.1865,3.1867,3.1868,3.1888,3.1889,3.1904,3.1902,3.1921,3.1925,3.1921,3.1935,3.1929,3.1945,3.1941,3.1969,3.1964,3.1966,3.1964,3.1982,3.198,3.2051,3.2058,3.2,3.2,3.2001,0,3.1877,3.1896,3.19,3.1909,3.1912,3.1928,3.1936,3.1927,3.1936,3.1943,3.1956,3.1969,3.1979,3.2002,3.2,3.2011,3.2005,3.2029,3.2006,3.2006,3.2001,3.1999,3.1999,3.2032,3.2033,3.2034,3.2034,0,3.1942,3.1938,3.195,3.1961,3.1971,3.1979,3.1986,3.1994,3.1985,3.1996,3.201,3.2017,3.2031,3.2043,3.2052,3.2054,3.2042,3.2041,3.2046,3.2047,3.2046,3.2043,3.1975,3.204,3.2039,3.2039,3.2038,3.2038,3.1988,3.2002,3.2006,3.2019,3.2023,3.2029,3.2041,3.204,3.2051,3.2062,3.2056,3.2071,3.2074,3.2085,3.2088,3.2099,3.2089,3.2096,3.2098,3.2099,3.21,3.2046,3.2101,3.21,3.21,3.21,3.21,0,3.2048,3.2049,3.2061,3.207,3.208,3.2068,3.2074,3.2082,3.2096,3.21,3.2109,3.2123,3.2134,3.2132,3.2141,3.2149,3.2144,3.2152,3.215,3.215,3.211,3.2103,3.2156,3.2156,3.2156,3.2156,3.2156,3.2156,3.2081,3.2103,3.2099,3.2122,3.2122,3.2137,3.2141,3.2145,3.2148,3.2164,3.2172,3.2171,3.2172,3.218,3.2188,3.2187,3.219,3.22,3.2196,3.2159,3.2153,3.2148,3.2141,3.2201,3.2201,3.2235,3.2235,3.2235]},{"header":{"parameterUnit":"m.s-1","parameterCategory":1,"la1":30.2991,"la2":30.254,"lo1":-89.0895,"lo2":-89.0444,"dy":0.0017,"dx":0.0017,"nx":28,"ny":28,"refTime":"2024-06-28T09:00:00:Z","depth":0,"parameterNumber":3,"parameterNumberName":"V-component_of_WINDS"},"data":[0,0,0,0,0,0,0,0,0,0,0,0,0,0,0,0,0,0,0,0,0,0,0,0,0,0,0,0,0,0,0,0,0,0,0,0,0,0,0,0,0,0,0,0,0,0,0,0,0,0,0,0,0,0,0,0,0,0,4.4703,4.4704,0,4.4819,4.482,4.4821,4.4815,4.4813,4.4812,4.481,4.4925,4.4929,4.4934,0,0,0,0,0,0,0,0,0,0,0,0,0,4.4469,4.4474,4.4702,4.4704,4.4705,4.4818,4.482,4.4822,4.4815,4.4813,4.4811,4.4809,4.4923,4.4929,4.4934,0,0,0,0,0,0,0,0,0,0,0,0,0,4.4576,4.4475,4.4702,4.4716,4.4718,4.4818,4.482,4.4822,4.4816,4.4813,4.4811,4.4808,4.4922,4.4928,4.4935,4.5028,0,0,4.4956,4.4959,0,0,0,0,0,0,0,0,4.457,4.4585,4.4712,4.4715,4.4718,4.48,4.478,4.4891,4.4816,4.4779,4.481,4.4807,4.4885,4.4895,4.4922,4.5033,4.5038,4.4957,4.4961,4.4964,4.4966,0,0,0,0,0,0,0,4.4563,4.458,4.4748,4.4714,4.4718,4.4714,4.4727,4.4801,4.4844,4.4782,4.4781,4.4795,4.4886,4.4915,4.4925,4.504,4.4957,4.4963,4.4967,4.497,4.523,4.5233,0,0,0,0,0,0,4.4553,4.4574,4.4745,4.4752,4.4637,4.472,4.4734,4.4776,4.4843,4.4851,4.4797,4.4795,4.4905,4.4917,4.4929,4.504,4.4964,4.4971,4.4975,4.5227,4.5231,4.5234,0,0,0,0,0,0,4.4548,4.4568,4.474,4.4663,4.4684,4.4727,4.4774,4.478,4.4809,4.4856,4.4863,4.482,4.4903,4.4919,4.5003,4.5044,4.4974,4.498,4.5224,4.5228,4.5232,4.5265,0,0,0,0,0,0,4.4541,4.4567,4.4604,4.4664,4.4689,4.4814,4.4777,4.4784,4.4821,4.4819,4.4878,4.4886,4.4903,4.4993,4.501,4.5053,4.4985,4.5221,4.5226,4.5231,4.5261,4.527,4.5278,0,0,0,0,0,4.4533,4.4608,4.4606,4.4627,4.4736,4.4817,4.4831,4.485,4.4825,4.4861,4.4891,4.4884,4.5037,4.5001,4.5021,4.5066,4.5218,4.5225,4.5231,4.5257,4.5268,4.5278,0,0,0,0,0,0,4.4552,4.4616,4.4615,4.4712,4.4759,4.4815,4.4863,4.4861,4.4915,4.4911,4.493,4.4944,4.5028,4.5055,4.5014,4.5158,4.5124,4.5134,4.5137,4.5149,4.5157,4.5149,4.4991,0,0,0,0,0,4.4567,4.4629,4.4681,4.4762,4.4785,4.482,4.4856,4.4866,4.4915,4.4934,4.497,4.5017,4.5075,4.5113,4.517,4.5264,4.5276,4.5304,4.5313,4.532,4.5329,4.5379,4.5392,4.5254,4.5254,4.5254,0,0,4.4599,4.4642,4.468,4.4766,4.4804,4.4865,4.4837,4.4903,4.4948,4.4944,4.5026,4.5053,4.5106,4.5196,4.5237,4.5221,4.5369,4.5328,4.5333,4.5338,4.5387,4.54,4.5411,4.5258,4.5258,4.5257,0,0,4.469,4.4729,4.48,4.4838,4.4896,4.4918,4.4934,4.4991,4.5009,4.5092,4.5089,4.5142,4.5243,4.528,4.5312,4.5414,4.5409,4.5431,4.5477,4.5525,4.5536,4.5546,4.5581,4.5594,4.544,4.544,4.544,0,4.4723,4.4817,4.4836,4.4903,4.494,4.4939,4.5009,4.5045,4.5117,4.5142,4.5123,4.5248,4.5284,4.5381,4.5406,4.5432,4.545,4.5425,4.5533,4.5543,4.5553,4.5586,4.56,4.5442,4.5442,4.5442,4.5442,0,4.4853,4.4918,4.4968,4.5039,4.5081,4.5149,4.5176,4.5217,4.5222,4.5245,4.5328,4.537,4.5435,4.5458,4.5465,4.5556,4.5544,4.5529,4.5496,4.5568,4.56,4.5613,4.5446,4.5445,4.5444,4.5443,0,0,4.4961,4.5039,4.5057,4.5088,4.5151,4.52,4.5267,4.533,4.5364,4.5413,4.5468,4.5552,4.5538,4.5575,4.5585,4.5627,4.5703,4.5607,4.5609,4.5623,4.5805,4.5816,4.583,4.57,4.5703,4.5705,4.58,0,4.5057,4.5177,4.5195,4.53,4.5359,4.5357,4.5415,4.5458,4.5481,4.5533,4.5557,4.5616,4.5594,4.5616,4.5658,4.5685,4.574,4.5679,4.5751,4.5753,4.5738,4.5847,4.5859,4.5947,4.5813,4.5815,4.5817,0,4.5186,4.5239,4.535,4.5402,4.5428,4.548,4.5538,4.5588,4.5636,4.5649,4.5689,4.5693,4.576,4.5723,4.5814,4.5772,4.5802,4.582,4.5823,4.5831,4.5789,4.5857,4.5976,4.5989,4.5837,4.5835,4.5834,0,4.5252,4.5351,4.543,4.5456,4.5519,4.5555,4.5583,4.5629,4.5665,4.5715,4.5739,4.5796,4.5827,4.587,4.5889,4.586,4.5979,4.5944,4.599,4.599,4.6016,4.6014,4.6141,4.6035,4.6035,4.6035,4.6035,0,4.5357,4.5425,4.546,4.5508,4.5583,4.5602,4.5675,4.5701,4.5741,4.5793,4.5795,4.5843,4.5865,4.5916,4.5931,4.6004,4.6018,4.6029,4.6032,4.6029,4.6028,4.6049,4.6043,4.6038,4.6038,4.6037,4.6036,0,4.5444,4.547,4.5556,4.5608,4.5623,4.5675,4.5719,4.5765,4.5786,4.5852,4.5868,4.5902,4.5962,4.5985,4.6058,4.6068,4.6152,4.615,4.6136,4.6137,4.6182,4.6177,4.6327,4.6347,4.6229,4.623,4.6231,0,4.551,4.5562,4.5619,4.5655,4.5684,4.5741,4.5778,4.5797,4.5835,4.5892,4.593,4.599,4.604,4.6135,4.6165,4.6221,4.622,4.6269,4.6229,4.6223,4.622,4.6217,4.6221,4.6276,4.6278,4.6279,4.6279,0,4.5623,4.5633,4.5687,4.5745,4.5789,4.5835,4.588,4.5908,4.5934,4.5976,4.6038,4.6076,4.615,4.6209,4.6266,4.6292,4.629,4.6292,4.6305,4.6303,4.6292,4.6298,4.6156,4.6288,4.6287,4.6287,4.6286,4.6286,4.5701,4.5747,4.5794,4.5853,4.5889,4.593,4.5975,4.6002,4.6054,4.6117,4.6124,4.619,4.6234,4.631,4.6339,4.639,4.6377,4.6397,4.6402,4.6406,4.6409,4.6284,4.64,4.64,4.64,4.64,4.64,0,4.5814,4.5844,4.5898,4.5961,4.6007,4.6,4.6049,4.6087,4.6146,4.6187,4.6236,4.6305,4.6362,4.6396,4.6453,4.6486,4.6487,4.6501,4.6498,4.6504,4.6418,4.6401,4.65,4.65,4.65,4.65,4.6499,4.6499,4.5879,4.5955,4.597,4.6062,4.6091,4.6157,4.6185,4.6222,4.6255,4.6333,4.6381,4.6402,4.644,4.6499,4.6551,4.6559,4.6579,4.6595,4.6602,4.6521,4.651,4.6501,4.6484,4.6599,4.6599,4.6683,4.6684,4.6685]}]]